map of KLLQ home
Great Circle Mapper logo
KLLQ - Airport
Location
City:  Monticello, Arkansas, United States
Name:Monticello Municipal/Ellis Field
ICAO:KLLQ
FAA LID:LLQ

Details
Type:Airport (Airfield)
Use:Public/Civil
Latitude:3338'19"N (33.638556)
Longitude:9145'04"W (-91.750999)
Datum:WGS 1984
Elevation:267 ft (81 m)
Variation:0.15E (WMM2015 magnetic declination)
-0.11 annual change
Runways:1
Longest:5020 × 75 ft (1530 × 23 m), paved

Time
Time Zone:UTC-6 (DST-5)
Local Time:

Weather
METAR:KLLQ 251853Z AUTO 23007KT 10SM SCT049 34/22 A3008 RMK AO2 SLP181 T03390217
TAF:KLLQ 251720Z 2518/2618 22009KT P6SM SCT040 SCT120
FM260000 VRB03KT P6SM SKC
FM261400 VRB05KT P6SM SCT050

Related Locations
Nearby:
Farthest:MQZ: 10903 mi / 17547 km
Margaret River [Margaret River Airport], WA, AU

Find:

   beyond  
but within

Other Information
Maps:
NOTAMs:
Links:
Sources:

  
flag of United States
flag of Arkansas
  

Sectional Chart

Flight Planning
at skyvector.com

Satellite Image

Google Maps Satellite view

 

Copyright © 2004-2016 Karl L. Swartz. All rights reserved.
The Great Circle Mapper name and logo are trademarks of the Great Circle Mapper.
All other trademarks mentioned herein belong to their respective owners.
Please see credits for attibutions and further copyright information.

  Follow gcmap on Facebook Follow gcmap on Twitter Follow gcmap on Google+ GCmap on LinkedIn

hCard Microformat

Geo Microformat